Location: *
(0.1100°N, 5.5000°E)
Time: 06:04:37
(UTC+00:00)

deb Kosmos-2227 - Visible Passes

Search period start: 21 May 2024 00:00
Search period end: 31 May 2024 00:00
Orbit: 708 x 761 km, 71.3° (Epoch: 20 May)

Date Brightness Start Highest point End Pass type
(mag) Time Alt. Az. Time Alt. Az. Time Alt. Az.
21 May ? 18:21:45 10° N 18:26:39 43° ENE 18:31:00 13° SE visible
21 May ? 20:07:06 10° W 20:08:04 10° WSW 20:09:03 10° WSW visible
22 May ? 19:16:27 10° NW 19:20:52 28° WSW 19:25:20 10° SSW visible
23 May ? 18:28:31 10° NNW 18:33:42 76° WSW 18:38:55 10° S visible
24 May ? 19:26:16 10° W 19:27:55 11° WSW 19:29:35 10° SW visible
25 May ? 18:36:10 10° NW 18:40:41 30° WSW 18:45:15 10° SSW visible
27 May ? 04:36:53 10° SE 04:39:20 14° ESE 04:41:46 10° ENE visible
27 May ? 18:45:32 10° W 18:47:40 12° WSW 18:49:48 10° SW visible
28 May ? 17:55:46 10° NW 18:00:24 33° WSW 18:05:03 10° SSW visible
29 May ? 04:41:47 10° S 04:46:15 34° ESE 04:50:41 10° NE visible
30 May ? 03:56:53 10° SE 03:58:58 13° ESE 04:01:03 10° E visible
30 May ? 18:04:47 10° WNW 18:07:18 14° WSW 18:09:49 10° SW visible
